Weather History for Cordova, AK

Change the Weather History Date:

Tuesday, January 22, 2013

  Actual Average Record
Temperature  
Mean Temperature 41 °F -  
Max Temperature 46 °F 33 °F 55 °F (1961)
Min Temperature 36 °F 18 °F -22 °F (1989)
Degree Days  
Heating Degree Days 24    
Moisture  
Dew Point 33 °F    
Average Humidity 77    
Maximum Humidity 97    
Minimum Humidity 56    
Precipitation  
Precipitation 0.01 in - - ()
Snow  
Snow 0.00 in - - ()
Snow Depth 1.00 in    
Sea Level Pressure  
Sea Level Pressure 29.58 in    
Wind  
Wind Speed 2 mph (NE)    
Max Wind Speed 6 mph    
Max Gust Speed 20 mph    
Visibility 10 miles    
Events Rain    
Averages and records for this station are not official NWS values.
T = Trace of Precipitation, MM = Missing Value Source: NWS Daily Summary

Daily Weather History Graph

Daily Weather History Graph

Search for Another Location

Airport:

Trip Planner

Search our weather history database for the weather conditions in past years. The results will help you decide how hot, cold, wet, or windy it might be!

Date:

Astronomy

Jan. 22, 2013 Rise Set
Actual Time 9:19 AM AKST 4:28 PM AKST
Civil Twilight 8:28 AM AKST 5:19 PM AKST
Nautical Twilight 7:34 AM AKST 6:13 PM AKST
Astronomical Twilight 6:44 AM AKST 7:03 PM AKST
Moon 12:43 PM AKST (1/22) 6:03 AM AKST (1/22)
Length of Visible Light 8h 51m
Length of Day
7h 08m
Waxing Gibbous, 84% of the Moon is Illuminated
Jan 22
Waxing Gibbous
Jan 26
Full
Feb 3
Last Quarter
Feb 9
New
Feb 17
First Quarter

Hourly Weather History & Observations

Time (AKST) Temp. Windchill Dew Point Humidity Pressure Visibility Wind Dir Wind Speed Gust Speed Precip Events Conditions
12:53 AM 45.0 °F 42.6 °F 33.1 °F 63% 29.76 in 10.0 mi East 4.6 mph 19.6 mph N/A   Overcast
1:53 AM 44.1 °F - 32.0 °F 63% 29.73 in 10.0 mi Calm Calm - N/A   Overcast
3:53 AM 37.0 °F 34.5 °F 32.0 °F 82% 29.69 in 10.0 mi NW 3.5 mph - N/A   Mostly Cloudy
4:53 AM 36.0 °F - 30.9 °F 82% 29.68 in 10.0 mi Calm Calm - N/A   Overcast
5:53 AM 36.0 °F - 30.9 °F 82% 29.66 in 10.0 mi Calm Calm - N/A   Overcast
6:53 AM 39.9 °F - 33.1 °F 77% 29.65 in 10.0 mi Calm Calm - 0.00 in   Overcast
7:53 AM 41.0 °F - 33.1 °F 73% 29.65 in 10.0 mi Calm Calm - N/A   Overcast
8:53 AM 43.0 °F 41.3 °F 33.1 °F 68% 29.64 in 10.0 mi NE 3.5 mph - N/A   Overcast
9:53 AM 46.0 °F 44.8 °F 30.9 °F 56% 29.63 in 10.0 mi East 3.5 mph - N/A   Overcast
10:53 AM 43.0 °F - 33.1 °F 68% 29.62 in 10.0 mi Calm Calm - N/A   Overcast
11:53 AM 39.0 °F - 34.0 °F 82% 29.60 in 10.0 mi Calm Calm - N/A   Overcast
12:53 PM 39.0 °F - 32.0 °F 76% 29.59 in 10.0 mi Calm Calm - N/A   Overcast
1:53 PM 39.0 °F 36.8 °F 32.0 °F 76% 29.56 in 10.0 mi ESE 3.5 mph - N/A   Overcast
2:53 PM 39.9 °F - 34.0 °F 79% 29.54 in 10.0 mi Calm Calm - N/A   Overcast
3:53 PM 39.0 °F - 34.0 °F 82% 29.53 in 10.0 mi Calm Calm - N/A   Overcast
4:53 PM 44.1 °F 40.8 °F 30.9 °F 60% 29.51 in 10.0 mi SE 5.8 mph - N/A   Overcast
5:53 PM 39.0 °F 35.7 °F 33.1 °F 79% 29.49 in 10.0 mi North 4.6 mph - 0.00 in Rain Light Rain
6:53 PM 37.0 °F - 34.0 °F 89% 29.49 in 10.0 mi Calm Calm - 0.00 in Rain Light Rain
7:53 PM 37.0 °F - 33.1 °F 86% 29.48 in 10.0 mi Calm Calm - 0.00 in   Overcast
8:53 PM 36.0 °F - 34.0 °F 93% 29.47 in 10.0 mi Calm Calm - 0.01 in Rain Light Rain
9:53 PM 36.0 °F - 34.0 °F 93% 29.47 in 10.0 mi Calm Calm - 0.00 in Rain Light Rain
10:53 PM 36.0 °F 33.3 °F 35.1 °F 97% 29.45 in 10.0 mi NNW 3.5 mph - 0.00 in   Overcast
11:53 PM 45.0 °F 42.6 °F 34.0 °F 65% 29.44 in 10.0 mi Variable 4.6 mph - N/A   Overcast